Cloud_Cover
2 67 100 100 100 96 40 8 34 86 26 5 6 13 4 0 0 1 6 0 74 0 11 1 2 32 6 86 34 5 28 10 37 0 0 0 0 0 1 2 0 0 5
0 56 100 94 100 96 25 23 91 11 100 24 6 0 5 8 5 7 18 18 0 98 13 0 72 50 9 48 100 13 0 0 0 0 0 0 0 0 0 0 0 0 0
0 5 97 100 100 43 97 53 28 36 99 100 19 14 5 5 78 100 74 21 3 34 7 2 0 98 8 0 7 0 0 0 0 0 5 76 32 15 0 18 80 41 69
0 0 95 100 100 92 68 99 96 27 64 97 30 41 96 54 100 69 23 2 0 0 1 9 9 1 0 0 0 0 0 0 0 0 41 12 20 3 4 87 61 79 72
3 0 39 100 100 100 97 82 92 100 61 100 14 5 100 100 56 47 10 5 0 0 0 0 0 0 0 0 0 0 0 0 0 0 2 0 0 28 24 71 94 36 63
12 51 17 84 100 100 100 100 100 100 98 74 100 100 100 95 90 89 40 6 0 0 0 0 0 0 0 0 0 36 1 0 0 0 50 63 86 46 8 33 40 52 77
100 82 75 15 100 100 100 100 100 100 94 71 100 100 100 100 99 100 70 5 0 0 0 0 0 0 0 1 2 0 0 0 0 53 98 98 91 69 79 66 87 96 100
92 100 100 38 19 100 100 100 100 100 100 85 100 100 100 100 100 100 100 5 2 1 0 0 1 0 14 0 0 0 0 0 74 81 76 88 42 16 75 100 100 87 24
61 100 100 71 49 100 100 100 100 100 100 100 100 100 97 100 99 93 99 14 8 2 5 68 78 55 0 0 16 0 0 20 93 100 99 100 34 67 46 92 35 10 9
100 68 42 95 38 100 100 100 100 100 100 100 100 100 100 100 83 92 100 100 100 72 65 65 100 100 100 36 0 0 0 93 100 100 100 78 26 18 8 0 0 0 0
74 78 97 100 34 100 69 100 100 100 100 100 61 92 12 100 96 54 15 61 100 100 100 100 100 94 65 3 0 0 0 100 100 88 99 6 0 2 0 0 0 2 0
97 100 100 37 65 86 99 100 100 100 100 100 38 5 5 44 96 100 31 51 84 69 100 100 96 13 5 5 2 0 0 22 52 65 100 7 4 1 15 0 0 3 62
26 100 100 100 96 96 100 100 100 100 100 100 81 80 43 5 28 89 34 68 93 100 88 46 17 26 16 5 0 0 0 0 4 17 41 0 9 95 21 12 0 0 29
36 100 100 100 100 100 100 100 100 100 100 100 81 64 25 5 8 50 58 5 5 99 58 14 8 5 0 0 0 0 2 5 0 0 1 22 56 34 98 6 1 3 21
2 100 100 100 100 100 100 100 100 97 92 100 99 55 58 7 8 5 5 5 5 5 5 5 5 5 0 0 0 1 0 0 5 5 5 94 100 100 99 71 9 0 6
21 98 100 100 100 100 100 100 91 71 64 94 100 74 5 5 5 5 5 39 57 71 66 23 5 5 5 7 5 5 5 31 6 66 96 50 5 0 3 1 4 24 13
0 94 100 100 100 100 100 100 62 15 6 5 37 94 67 72 10 57 80 100 100 96 100 100 73 36 6 5 5 5 9 50 96 100 100 9 5 1 0 8 13 2 21
99 100 100 100 100 100 100 100 100 100 69 5 5 5 47 70 61 100 99 84 100 100 100 100 100 100 100 100 95 100 100 100 100 97 7 5 5 0 0 3 0 0 0
100 100 100 100 100 100 100 100 100 100 63 7 5 5 5 8 100 100 100 100 100 100 100 100 100 100 100 100 100 100 100 100 99 99 8 5 4 5 0 2 3 0 5
99 100 100 100 100 100 100 100 100 100 100 87 85 92 46 83 100 100 100 100 100 100 100 100 100 100 100 100 100 100 100 90 51 100 65 11 5 5 5 2 4 5 0
100 100 100 100 100 100 100 100 100 100 100 100 100 100 100 100 100 100 100 100 100 100 100 100 100 100 100 100 100 100 100 100 100 96 93 99 10 12 6 5 5 5 5
100 100 100 100 100 100 100 100 100 100 100 100 100 100 100 100 100 100 100 100 100 100 69 87 100 100 100 100 100 100 100 100 99 88 36 48 31 22 6 42 5 5 5
100 100 100 100 100 100 100 100 100 100 100 100 100 100 100 100 100 100 100 100 100 100 100 100 100 100 100 100 100 100 100 100 100 100 84 100 72 94 70 45 5 5 81
100 100 100 100 100 100 100 100 100 100 100 100 100 100 100 100 100 100 100 100 100 100 100 100 100 100 100 100 100 100 98 100 98 100 100 100 83 72 5 5 15 74 95
100 100 100 100 100 100 100 100 100 100 100 100 100 100 100 100 100 100 100 100 100 100 100 100 100 100 100 100 100 82 100 100 100 100 94 78 88 59 5 34 82 86 79
100 100 100 100 100 100 100 100 100 100 100 100 100 100 100 100 100 100 100 100 100 100 100 100 100 100 100 100 100 100 100 100 100 100 94 97 23 5 9 62 16 36 72